Location: Caltech
(34.1382°N, 118.1253°W)
Time: 13:02:47
(UTC-07:00)

Iridium 91 - Visible Passes

Search period start: 31 October 2014 00:00
Search period end: 09 November 2014 23:00
Orbit: 775 x 780 km, 86.4° (Epoch: 31 October)

Date Brightness Start Highest point End Pass type
(mag) Time Alt. Az. Time Alt. Az. Time Alt. Az.
31 Oct 7.2 19:55:50 10° S 19:57:22 20° SSE 19:57:22 20° SSE visible
01 Nov 8.5 06:31:40 10° NE 06:34:22 14° ENE 06:37:03 10° ESE visible
01 Nov 6.5 19:22:59 10° SSE 19:26:02 27° ESE 19:26:02 27° ESE visible
01 Nov 7.8 21:04:15 10° SW 21:06:41 20° WSW 21:06:41 20° WSW visible
02 Nov 6.8 17:51:01 10° ESE 17:54:18 17° E 17:57:35 10° NE visible
02 Nov 6.6 19:29:40 10° SSW 19:34:35 43° W 19:39:32 10° NNW visible
03 Nov 5.4 18:55:49 10° S 19:01:01 85° W 19:06:15 10° N visible
04 Nov 8.3 05:30:43 10° NNE 05:34:37 21° E 05:38:30 10° SE visible
04 Nov 5.6 18:22:35 10° SSE 18:27:34 49° E 18:32:34 10° NNE visible
04 Nov 8.2 20:05:34 10° WSW 20:08:31 15° WNW 20:11:30 10° NW visible
05 Nov 8.8 04:59:49 10° ENE 05:00:47 11° ENE 05:01:45 10° E visible
05 Nov 6.4 17:50:02 10° SE 17:54:13 25° E 17:58:25 10° NNE visible
05 Nov 7.3 19:30:17 10° SW 19:34:45 29° W 19:39:15 10° NNW visible
06 Nov 7.1 17:18:43 10° ESE 17:21:00 13° E 17:23:17 10° NE visible
06 Nov 6.1 18:56:01 10° SSW 19:01:07 57° W 19:06:14 10° N visible
07 Nov 7.6 05:30:14 10° NNE 05:34:49 31° E 05:39:23 10° SE visible
07 Nov 5.4 18:22:25 10° S 18:27:35 74° E 18:32:47 10° N visible
08 Nov 8.4 04:57:52 10° NE 05:01:04 16° ENE 05:04:15 10° ESE visible
08 Nov 6.0 17:49:26 10° SSE 17:54:10 37° E 17:58:56 10° NNE visible
08 Nov 8.0 19:31:14 10° SW 19:34:58 20° W 19:38:43 10° NNW visible
09 Nov 6.8 17:17:14 10° SE 17:20:53 20° E 17:24:31 10° NE visible
09 Nov 6.9 18:56:27 10° SSW 19:01:15 38° W 19:06:04 10° NNW visible
